www.pogodaiklimat.ru

Погода и климат >> Архив погоды >> Россия >> Калининградская область >> Калининград


АРХИВ ПОГОДЫ в Калининграде

Время (UTC), дата Ветер
(напр.,м/с)
 
Видим.   Явления Облачность Т
(С)
Тd
(С)
f
(%)
Тe
(С)
Тes
(С)
Комфортность P
(гПа)
Po
(гПа)
Тmin
(С)
Tmax
(С)
R
(мм)
R24
(мм)
S
(см)
00 15.07 штиль 0-1
{2}
4000 м дымка 3/0
[Ci fib]
+11.2 +10.4 95 +10 +10 холодно 1014.3 1011.6
03 15.07 штиль 0-1
{2}
4000 м дымка 3/0
[Ci fib]
+11.2 +10.6 96 +10 +11 холодно 1014.1 1011.4 +10.9
06 15.07 СЗ 2-3
{4}
10 км 3/3 1000 м
[Cu hum Ci fib]
+17.5 +12.7 73 +18 +22 по сезону 1014.2 1011.6 +10.9
09 15.07 СЗ 1-3
{4}
10 км 6/1 1000 м
[Cu hum Ci fib]
+20.9 +10.1 50 +24 +37 комфорт 1013.8 1011.2
12 15.07 З 1-3
{5}
10 км 8/6 1000 м
[Cu med, cong Ci]
+21.2 +12.6 58 +23 +29 комфорт 1013.3 1010.7
15 15.07 СВ 1-3
{4}
10 км 6/4 1000 м
[Cu Sc Ci]
+20.3 +11.8 58 +23 +27 комфорт 1012.8 1010.2
18 15.07 С 1-3
{3}
10 км 8/0
[Ci sp]
+18.4 +11.3 63 +20 +20 по сезону 1012.0 1009.4 +23.4
21 15.07 З 1-1
{2}
10 км дымка 3/0
[Ci sp]
+13.6 +12.1 91 +14 +14 прохладно 1011.9 1009.3
00 16.07 штиль 0-1
{2}
4000 м дымка 8/8 1000 м
[Sc]
+15.0 +13.0 88 +15 +15 по сезону 1011.0 1008.4
03 16.07 штиль 0-1
{2}
4000 м дымка 10/10 600 м
[Sc]
+15.1 +13.0 87 +15 +15 по сезону 1009.4 1006.8 +13.3
06 16.07 штиль 0-1
{2}
4000 м в посл. час ливневой дождь 10/10 600 м
[Sc]
+14.7 +13.7 94 +14 +14 прохладно 1008.1 1005.5 +13.3 2
09 16.07 З 2-5
{7}
10 км {ливн. осадки} 10/10 1000 м
[Cu Sc]
+16.7 +11.6 72 +17 +17 прохладно 1007.6 1005.0
12 16.07 СЗ 2-5
{7}
10 км в посл. час ливневой дождь 9/9 600 м
[Cb cap]
+16.9 +11.4 70 +17 +19 холодно 1007.7 1005.1
15 16.07 С 2-5
{7}
10 км 9/3 1000 м
[Cu med, cong Ac trans]
+17.2 +9.6 61 +18 +20 прохладно 1008.6 1006.0 3
18 16.07 СЗ 2-3
{6}
10 км 9/4 1000 м
[Cu Sc Ac trans Ci fib]
+15.9 +10.3 69 +16 +16 прохладно 1008.8 1006.2 +18.8 0.9
21 16.07 СЗ 2-3
{4}
4000 м слаб. ливневой дождь 10/10 600 м
[Cb cap]
+14.4 +11.8 84 +14 +14 прохладно 1008.3 1005.7
00 17.07 штиль 0-1
{2}
4000 м дымка {ливн. осадки} 10/10 600 м
[Cu Sc]
+13.0 +11.9 93 +12 +12 прохладно 1007.6 1005.0
03 17.07 штиль 0-2
{3}
4000 м дымка {ливн. осадки} 10/4 600 м
[Cu Sc Ac trans Cs]
+11.5 +10.9 96 +11 +11 холодно 1007.0 1004.4 +10.7 4
06 17.07 С 2-4
{4}
4000 м дымка {ливн. осадки} 9/9 600 м
[Cb cap Ac trans]
+14.4 +12.8 90 +14 +14 прохладно 1008.1 1005.5 +10.7 5
09 17.07 С 2-4
{7}
10 км 8/8 600 м
[Cu med, cong]
+17.8 +10.3 61 +18 +21 прохладно 1009.3 1006.7
12 17.07 СЗ 2-6
{9}
10 км в посл. час ливневой дождь 10/10 300 м
[Cb cap]
+16.0 +12.9 82 +16 +16 холодно 1010.2 1007.6
15 17.07 С 3-7
{8}
10 км слаб. ливневой дождь 10/10 600 м
[Cb cap]
+17.0 +12.7 76 +17 +17 прохладно 1010.9 1008.3 2
18 17.07 СЗ 2-4
{8}
10 км {ливн. осадки} 4/4 300 м
[St]
+15.8 +11.8 77 +16 +16 прохладно 1011.7 1009.1 +19.2 0.1
21 17.07 СЗ 1-3
{4}
10 км 3/3 300 м
[St Ci fib]
+13.9 +11.8 87 +14 +14 прохладно 1011.9 1009.3
00 18.07 СЗ 1-2
{3}
4000 м 9/9 300 м
[Sc]
+13.8 +12.4 91 +14 +14 по сезону 1012.3 1009.7
03 18.07 СЗ 1-2
{4}
4000 м 10/10 600 м
[Sc]
+14.9 +12.8 87 +15 +15 по сезону 1012.2 1009.6 +13.2
06 18.07 СЗ 2-5
{5}
10 км 9/9 600 м
[Cu Sc]
+17.2 +12.9 76 +18 +18 по сезону 1012.7 1010.1 +13.2
09 18.07 С 3-5
{6}
10 км 8/8 600 м
[Cu med, cong]
+18.9 +12.5 66 +20 +22 по сезону 1013.3 1010.7
12 18.07 С 2-4
{6}
10 км 4/4 600 м
[Cu med, cong]
+20.6 +13.0 62 +24 +32 комфорт 1013.5 1010.9
15 18.07 С 2-5
{6}
10 км 3/3 600 м
[Cu med, cong]
+20.4 +12.6 61 +23 +27 комфорт 1013.7 1011.1
18 18.07 С 2-5
{6}
10 км ясно +17.3 +12.8 75 +18 +18 по сезону 1013.8 1011.2 +21.4
21 18.07 штиль 0-1
{4}
4000 м дымка ясно +12.7 +11.8 94 +12 +12 холодно 1014.3 1011.6
00 19.07 штиль 0
{1}
4000 м местами туман поземный ясно +11.5 +10.9 96 +11 +11 прохладно 1014.6 1011.9
03 19.07 штиль 0
{1}
4000 м местами туман поземный ясно +10.3 +9.9 97 +9 +10 очень
холодно
1014.7 1012.0 +10.1
06 19.07 ЮВ 1-2
{2}
10 км ясно +17.1 +14.1 83 +18 +24 по сезону 1014.7 1012.1 +10.1
09 19.07 В 1-2
{3}
10 км ясно +21.6 +11.4 52 +24 +39 комфорт 1014.6 1012.0
12 19.07 В 2-4
{5}
10 км 4/3 1500 м
[Cu hum Ci fib]
+23.5 +11.5 47 +25 +35 комфорт 1014.2 1011.6
15 19.07 СВ 3-5
{6}
10 км 3/1 1000 м
[Cu hum Cs]
+23.2 +13.2 53 +26 +30 жарко 1013.6 1011.0
18 19.07 СВ 2-3
{6}
10 км 4/1 1000 м
[Cu hum Ci fib]
+20.1 +11.7 58 +22 +23 комфорт 1013.7 1011.1 +24.6
21 19.07 С 1-2
{4}
10 км 3/0
[Ci fib]
+16.7 +12.6 77 +18 +18 по сезону 1014.2 1011.6
00 20.07 СВ 1-2
{2}
4000 м дымка 3/0
[Ci fib]
+15.2 +13.1 87 +16 +16 по сезону 1014.5 1011.9
03 20.07 С 1-2
{4}
4000 м дымка 1/0
[Cs]
+13.8 +11.5 86 +14 +14 прохладно 1014.6 1012.0 +13.7
06 20.07 В 2-2
{3}
10 км ясно +19.1 +12.8 67 +21 +26 комфорт 1015.2 1012.6 +13.7
09 20.07 В 2-4
{5}
10 км ясно +24.1 +12.5 48 +26 +39 жарко 1015.6 1013.0
12 20.07 СВ 2-4
{5}
10 км 1/0
[Ci fib]
+25.9 +14.2 48 +28 +42 жарко 1015.6 1013.1
15 20.07 СВ 2-4
{6}
10 км ясно +25.2 +14.4 51 +28 +33 жарко 1015.9 1013.4
18 20.07 С 2-3
{5}
10 км 3/0
[Ci fib]
+21.7 +14.5 64 +25 +25 комфорт 1015.8 1013.2 +26.4
21 20.07 С 1-1
{2}
4000 м дымка ясно +16.2 +14.3 89 +17 +17 по сезону 1016.4 1013.8
00 21.07 В 1-1
{2}
4000 м дымка 3/0
[Ci fib]
+15.2 +14.2 94 +16 +16 по сезону 1015.8 1013.2
03 21.07 штиль 0-1
{1}
4000 м дымка 6/0
[Cs]
+14.5 +13.6 94 +14 +14 прохладно 1014.6 1012.0 +14.4
06 21.07 ЮВ 2-3
{3}
10 км 9/0
[As trans Ci fib]
+21.4 +16.3 73 +25 +28 комфорт 1014.3 1011.7 +14.4
09 21.07 ЮЗ 1-4
{5}
10 км 10/0 2000 м
[Ac und]
+24.7 +16.6 61 +28 +33 душно 1014.4 1011.9
12 21.07 З 1-4
{4}
10 км {ливн. осадки} 9/0
[As trans Cs]
+24.6 +18.4 68 +29 +38 душно 1015.1 1012.6
15 21.07 СЗ 2-6
{7}
10 км 9/4 300 м
[Cu hum Cs]
+22.9 +15.9 65 +27 +30 душно 1016.2 1013.6 2
18 21.07 СЗ 2-7
{7}
10 км 10/0
[As trans Cs]
+20.1 +15.6 75 +23 +23 комфорт 1017.2 1014.6 +26.7 2
21 21.07 З 1-3
{5}
4000 м дымка 10/0
[Cs]
+18.2 +16.0 87 +20 +20 тепло 1017.7 1015.1

 

Местоположение метеостанции Калининград (Калининградская область, Россия): широта 54.70 долгота 20.62 высота над уровнем моря 21 м.

В архиве по умолчанию представлена погода в Калининграде за последнюю неделю. Архивные данные за месяц целиком и за предыдущие месяцы, начиная с января 2011 года, Вы можете получить, выбрав интересующий диапазон дат из раскрывающегося списка и нажав кнопку "Ввод!".


*Определитесь, кто Вы:
робот инопланетянин человек

Внимание! Время в таблицах - всемирное. Для получения местного времени необходимо прибавить поправку, которая равна 2 ч.

Смотрите также архив погоды в соседних городах и на ближайших метеорологических станциях:

Погода в Рыбном Порту (Калининградская область, Россия) (11 км)
Погода в Пионерском (Калининградская область, Россия) (38 км)
Погода в Балтийске (Калининградская область, Россия) (48 км)
Погода в Мамоново (Калининградская область, Россия) (51 км)
Погода в Рыбачем (Калининградская область, Россия) (53 км)
Погода в Железнодорожном (Калининградская область, Россия) (57 км)
Погода в Ниде (Литва) (74 км)
Погода в Черняховске (Калининградская область, Россия) (76 км)
Погода в Кентшине (Польша) (85 км)
Погода в Шилуте (Литва) (90 км)

Пояснения к столбцам:

Ветер - указаны скорость ветра в м/с - средняя за 10 мин, порывы в срок и между сроками (в фигурных скобках) и направление, откуда дует ветер: С - северный, СВ - северо-восточный, В - восточный, ЮВ - юго-восточный, Ю - южный, ЮЗ - юго-западный, З - западный, СЗ - северо-западный.
Видимость - горизонтальная дальность видимости в метрах или километрах. При видимости от 1 до 10 км при отсутствии осадков обычно наблюдается дымка, при ухудшении видимости до 1 км и менее - туман. В сухую погоду видимость может ухудшаться дымом, пылью или мглою.
Явления - указаны атмосферные явления, наблюдавшиеся в срок или в последний час перед сроком; фигурными скобками обозначены явления, наблюдавшиеся между сроками (за 1-3 часа до срока); квадратными скобками обозначены град или гололедные отложения с указанием их диаметра в мм.
Облачность - указаны через наклонную черту общая и нижняя облачность в баллах и высота нижней границы облаков в метрах; квадратными скобками обозначены формы облаков: Ci - перистые, Cs - перисто-слоистые, Cc - перисто-кучевые, Ac - высококучевые, As - высокослоистые, Sc - слоисто-кучевые, Ns - слоисто-дождевые, Cu - кучевые, Cb - кучево-дождевые. Подробнее классификацию облаков см. в Атласе облаков (PDF).
T - Температура воздуха - температура, измеренная на высоте 2 м над землей.
Td - Температура точки росы - температура, при понижении до которой содержащийся в воздухе водяной пар достигнет насыщения.
f - Относительная влажность воздуха - влажноcть воздуха, измеренная на высоте 2 м над землей.
Te - Эффективная температура - температура, которую ощущает одетый по сезону человек в тени. Характеристика душности погоды. При расчете учитывается влияние влажности воздуха и скорости ветра на теплоощущения человека.
Tes - Эффективная температура на солнце - температура, которую ощущает человек, с поправкой на солнечный нагрев. Характеристика знойности погоды. Зависит от высоты солнца над горизонтом, облачности и скорости ветра. Ночью, в пасмурную погоду, а также при ветре 12 м/с и более поправка равна нулю.
P - Атмосферное давление - приведенное к уровню моря атмосферное давление.
Po - Атмосферное давление - измеренное на уровне метеостанции атмосферное давление.
Tmin - Минимальная температура - минимум температуры воздуха на высоте 2 м над землей.
Tmax - Максимальная температура - максимум температуры воздуха на высоте 2 м над землей.
R - Количество осадков - Количество выпавших осадков за период времени, мм. При наведении курсора мыши на число - период времени, за который выпало указанное количество осадков.
R24 - Количество осадков - Количество выпавших осадков за 24 часа, мм.
S - Снежный покров - Высота снежного покрова, см. При наведении курсора мыши на число - состояние снежного покрова и степень покрытия местности в баллах.